Regional Weather Roundup
Issued by NWS

Home | Current Version | Previous Version | Graphics & Text | Print | Product List | Glossary Off
Versions: 1 2 3 4 5 6 7 8 9 10 11 12 13 14 15 16 17 18 19 20 21 22 23 24 25 26 27 28 29 30 31 32 33 34 35 36 37 38 39 40 41 42 43 44 45 46 47 48 49 50

000
ASUS43 KDTX 261510
RWRMI
MICHIGAN HOURLY REGIONAL WEATHER ROUNDUP
NATIONAL WEATHER SERVICE DETROIT/PONTIAC MI
1100 AM EDT WED JUL 26 2017

NOTE: "FAIR" INDICATES FEW OR NO CLOUDS BELOW 12,000 FEET WITH NO
SIGNIFICANT WEATHER AND/OR OBSTRUCTION TO VISIBILITY.

MIZ047>049-052>055-059>063-066>070-074>076-081>083-261600-
SOUTHEAST LOWER MICHIGAN

CITY           SKY/WX    TMP DP  RH WIND       PRES   REMARKS
ADRIAN         MOSUNNY   72  61  68 SW10      30.17F
ALMA           CLOUDY    72  61  68 SW9       30.11S
ANN ARBOR      CLOUDY    72  62  71 SW6       30.16F
BAD AXE        CLOUDY    70  62  75 S15       30.11F
CARO           CLOUDY    73  62  68 S8        30.11F
DETROIT CITY   CLOUDY    74  62  66 SW9       30.17S
DETROIT        CLOUDY    73  62  68 S6        30.17S
FLINT          PTSUNNY   73  62  68 S6        30.14F
GROSSE ILE     PTSUNNY   73  62  68 SW5       30.16F
HILLSDALE      CLOUDY    70  59  68 SW7       30.16S
HOWELL         CLOUDY    71  62  71 S8        30.14F

CITY           SKY/WX    TMP DP  RH WIND       PRES   REMARKS
JACKSON        CLOUDY    73  61  65 S10       30.15F
LAMBERTVILLE   MOSUNNY   72  62  69 S6        30.16S
LANSING        CLOUDY    73  60  63 S13       30.13F
LAPEER         FAIR      73  61  67 S7        30.15F
MASON          PTSUNNY   72  63  74 SW6       30.14F
MONROE         MOSUNNY   74  62  67 SW7       30.16F
MT. CLEMENS    CLOUDY    76  62  62 SW6       30.15S
PONTIAC        CLOUDY    73  62  68 S8        30.14F
PORT HOPE        N/A     70  61  73 S9G21     30.07F
PORT HURON     CLOUDY    72  63  73 S8        30.17S
TRI CITIES     MOSUNNY   72  64  76 S14       30.10F
MIDLAND        FAIR      72  61  67 S10       30.09F
TROY           PTSUNNY   73  61  65 SW7       30.19R
SAGINAW HB     CLOUDY    72  61  68 S10       30.10F
$$
MIZ043>046-050>051-056>058-064>065-071>073-077>080-261600-
SOUTHWEST LOWER MICHIGAN

CITY           SKY/WX    TMP DP  RH WIND       PRES   REMARKS
BATTLE CREEK   CLOUDY    73  63  70 SW10      30.15S
BENTON HARBOR  MOSUNNY   75  63  66 S8        30.10F
BIG RAPIDS     CLOUDY    70  61  73 SW5       30.08F
COLDWATER      MOSUNNY   72  62  70 SW6       30.16S
FREMONT        FAIR      72  64  77 SW12      30.06F
HOLLAND        CLOUDY    74  63  68 S8        30.10F
GRAND RAPIDS   CLOUDY    73  63  70 S8        30.11F
IONIA          FAIR      73  61  66 S8        30.11F
KALAMAZOO      CLOUDY    74  61  63 S10       30.14S
LUDINGTON      CLOUDY    73  65  77 SW14G21   30.04S
MARSHALL       PTSUNNY   72  62  71 S9        30.15R
MOUNT PLEASANT CLOUDY    73  59  62 S9G16     30.08F
MUSKEGON       CLOUDY    74  65  73 S13       30.08F
SOUTH HAVEN    MOSUNNY   75  65  69 S8        30.10F
$$
MIZ016>042-261600-
NORTHERN LOWER MICHIGAN

CITY           SKY/WX    TMP DP  RH WIND       PRES   REMARKS
ALPENA         CLOUDY    65  62  90 S8        30.05R
BEAVER ISLAND  CLOUDY    68  65  88 SW10G18   29.98S
BELLAIRE       CLOUDY    68  62  82 S6        30.01F
CADILLAC       CLOUDY    72  61  67 SW10G20   30.05F
CHARLEVOIX     CLOUDY    68  64  85 S8        30.01F
FRANKFORT      CLOUDY    73  64  75 SW13G22   30.02S
GAYLORD        CLOUDY    66  59  78 SW13      30.04F
GRAYLING       PTSUNNY   66  60  79 SW8       30.06F
HARBOR SPRINGS CLOUDY    67  62  84 SW9G18    29.99F
HOUGHTON LAKE  PTSUNNY   69  60  73 S10       30.08F
MANISTEE       CLOUDY    73  65  75 VRB7      30.03
OSCODA         CLOUDY    68  64  86 S17       30.04F
PELLSTON       PTSUNNY   69  62  78 SW8G24    29.98F
ROGERS CITY    CLOUDY    64  60  86 S13G18    30.01F
TRAVERSE CITY  CLOUDY    72  63  73 VRB3      30.00F
$$
MIZ007>008-015-261600-
EASTERN UPPER MICHIGAN

CITY           SKY/WX    TMP DP  RH WIND       PRES   REMARKS
KINROSS        CLOUDY    65  62  90 SW7       29.97S
MACKINAC ISLAN CLOUDY    67  64  93 SW12G18   29.96F
NEWBERRY       LGT RAIN  65  64  97 S7G16     29.94F
S. S. MARIE    CLOUDY    67  63  87 SW9G18    29.95F
MUNISING         N/A     69  69 100 SW9       29.93R
$$
MIZ004>006-011>014-085-261600-
CENTRAL UPPER MICHIGAN

CITY           SKY/WX    TMP DP  RH WIND       PRES   REMARKS
MANISTIQUE     LGT RAIN  64  61  89 S10G16    29.95F
ESCANABA       CLOUDY    69  68  96 W6        29.96R
MENOMINEE      RAIN      68  66  93 W5        30.01R
SAWYER-GWINN   DRIZZLE   68  66  94 SW9       29.97R
$$
MIZ001>003-009>011-084-261600-
WESTERN UPPER MICHIGAN

CITY           SKY/WX    TMP DP  RH WIND       PRES   REMARKS
IRON MOUNTAIN  LGT RAIN  72  67  84 SW5       29.98R
HOUGHTON       MOSUNNY   74  61  63 W15       29.94S
COPPER HARBOR    N/A     69  57  65 N14G24    29.90S
IRONWOOD       CLOUDY    72  63  73 W9        29.99S
$$

ABBREVIATIONS USED IN REMARKS
   TC - TEMPERATURE IN CELSIUS
  WCI - WIND CHILL INDEX
   HX - HEAT INDEX
  VSB - VISIBILITY





USA.gov is the U.S. government's official web portal to all federal, state and local government web resources and services.